Regional Weather Roundup
Issued by NWS

Home | Current Version | Previous Version | Text Only | Print | Product List | Glossary On
Versions: 1 2 3 4 5 6 7 8 9 10 11 12 13 14 15 16 17 18 19 20 21 22 23 24 25 26 27 28 29 30 31 32 33 34 35 36 37 38 39 40 41 42 43 44 45 46 47 48 49 50
000
ASCA42 TJSJ 200310
RWRPR
PUERTO RICO/U.S. VIRGIN ISLANDS HOURLY WEATHER ROUNDUP
NATIONAL WEATHER SERVICE SAN JUAN PR
1100 PM AST TUE SEP 19 2017

PRZ001>002-007>008-010-200400-
PUERTO RICO

CITY           SKY/WX    TMP DP  RH WIND       PRES   REMARKS
SAN JUAN LMM   LGT RAIN  82  77  83 NE25G33   29.78F HX  91
CEIBA          LGT RAIN  81  79  94 N33G43    29.71F FOG
$$

VIZ001>002-200400-
U.S. VIRGIN ISLANDS

CITY           SKY/WX    TMP DP  RH WIND       PRES   REMARKS
CHARLOTTE AMA  HVY RAIN  79  79 100 NE43G74   29.61F
CHRISTIANSTED  HVY RAIN  75  75 100 MISG        N/A  VSB 1/2
$$

HOURLY WEATHER ROUNDUP FOR THE NEWS MEDIA

CITY           SKY/WX    TMP DP  RH WIND       PRES   REMARKS
NEW YORK       CLOUDY    72  65  78 N16       29.85F
NEWARK         CLOUDY    72  65  78 N18       29.87F
CHICAGO        CLEAR     68  62  81 E3        29.93R
HARTFORD       RAIN      66  65  96 N13G21    29.89F FOG
BOSTON         CLOUDY    63  63 100 N15       29.99F FOG
DALLAS         MOCLDY    89  69  51 S6        29.86R HX  93
PHILADELPHIA   CLOUDY    72  65  78 N14       29.87F
LOS ANGELES    CLEAR     67  63  87 W13       29.87R
WASHINGTON DC  PTCLDY    71  67  87 N5        29.94S


USA.gov is the U.S. government's official web portal to all federal, state and local government web resources and services.